sat.trackr.live / text

‹ back to catalog

STARLINK-35087

NORAD 65541 · 2025-200X

PAYLOAD ACTIVE UNKNOWN

§ Identity

Operator
Country
US
Launch date
2025-09-06
Launch site
AFWTR
Launch vehicle
Mass (kg)
RCS (m²)

Purposes: comms

External: N2YO · Heavens-Above · Gunter

§ Orbital elements

Epoch: 2026-09-20T22:18:25.536672Z

Period
93.91 min
Inclination
97.2853°
Eccentricity
0.0000871
Mean motion
15.33453702 rev/d
Perigee alt
464.9 km
Apogee alt
466.1 km
Semi-major
6,843.7 km
B*
5.6044e-4
RAAN
330.2586°
Arg perigee
83.7204°
Mean anomaly
276.4138°
Rev number
5,870

§ Raw data

STARLINK-350871 65541U 25200X   26263.92946223  .00018066  00000+0  56044-3 0  99982 65541  97.2853 330.2586 0000871  83.7204 276.4138 15.33453702 58708

JSON: /api/v1/satellites/65541 · /tle

For live sub-satellite position, see the globe view (requires WebGL).

§ Visibility from observer

Set your observer location to see the next 7 days of passes ≥ 10°. The values pass through the URL so the page stays shareable.

No JS? Fill the form by hand. The geolocation button needs JavaScript.